Regional Weather Roundup
Issued by NWS

Home | Current Version | Previous Version | Text Only | Print | Product List | Glossary Off
Versions: 1 2 3 4 5 6 7 8 9 10 11 12 13 14 15 16 17 18 19 20 21 22 23 24 25 26 27 28 29 30 31 32 33 34 35 36 37 38 39 40 41 42 43 44 45 46 47 48 49 50

000
ASUS44 KMEG 010110
RWRTN
TENNESSEE HOURLY STATE WEATHER ROUNDUP
NATIONAL WEATHER SERVICE MEMPHIS TN
800 PM CDT MON AUG 31 2015

TNZ002-004-019-021-049-052-054-088>092-010200-
WEST TENNESSEE

CITY           SKY/WX    TMP DP  RH WIND       PRES   REMARKS
MEMPHIS INTL   PTCLDY    85  67  54 SE6       30.04R
NWS MEMPHIS      N/A     83 N/A N/A MISG        N/A
JACKSON        CLEAR     74  69  85 CALM      30.06S
DYERSBURG      CLEAR     75  70  83 CALM      30.05S
UNION CITY     CLEAR     79  68  69 CALM      30.05R
PARIS          CLEAR     72  66  83 CALM      30.08R
LEXINGTON      CLEAR     73  70  88 CALM      30.06S
$$

TNZ008-025-027-028-033-062-065-066-010200-
NORTH MIDDLE TENNESSEE

CITY           SKY/WX    TMP DP  RH WIND       PRES   REMARKS
NASHVILLE      FAIR      79  63  57 CALM      30.08R
CLARKSVILLE    FAIR      77  67  71 CALM      30.07R
SMYRNA         CLEAR     77  67  71 CALM      30.09R
COOKEVILLE     PTCLDY    73  70  88 CALM      30.10R
CROSSVILLE     CLEAR     70  66  87 CALM      30.15R
$$

TNZ061-075-076-078-094-096-097-010200-
SOUTH MIDDLE TENNESSEE

CITY           SKY/WX    TMP DP  RH WIND       PRES   REMARKS
FAYETTEVILLE   CLEAR     72  66  83 CALM      30.10R
TULLAHOMA      CLEAR     72  66  83 CALM      30.12R
WINCHESTER     CLEAR     73  70  88 CALM      30.10R
MCMINNVILLE    CLEAR     72  72 100 CALM      30.11R
COLUMBIA       CLEAR     75  72  88 CALM      30.07S
SHELBYVILLE    CLEAR     73  72  94 CALM      30.10R
$$

TNZ017-018-042-046-047-010200-
NORTHEAST TENNESSEE

CITY           SKY/WX    TMP DP  RH WIND       PRES   REMARKS
TRI CITIES     FAIR      71  66  84 N3        30.12R
ELIZABETHTON   CLEAR     66  63  88 CALM      30.14R
$$

TNZ012-013-036-069-073-074-010200-
CENTRAL EAST TENNESSEE

CITY           SKY/WX    TMP DP  RH WIND       PRES   REMARKS
KNOXVILLE      CLEAR     77  64  64 E3        30.08R
OAK RIDGE      FAIR      76  68  76 CALM      30.11R
GATLINBURG     CLEAR     73  61  64 CALM      30.08S
MORRISTOWN     CLEAR     73  64  73 CALM      30.12R
$$

TNZ083-085-099-010200-
SOUTHEAST TENNESSEE

CITY           SKY/WX    TMP DP  RH WIND       PRES   REMARKS
CHATTANOOGA    PTCLDY    77  67  71 CALM      30.08R
$$

SKY/WX REPORTED AS FAIR MEANS FEW OR NO CLOUDS BELOW
12 THOUSAND FEET.




USA.gov is the U.S. government's official web portal to all federal, state and local government web resources and services.